Preview of NWS' New Version of Forecast
This preview is not operational and should not be used for support decisions.

Regional Weather Roundup (RWR)

Issued by Memphis, TN (MEG)

                            
000
ASUS44 KMEG 220410
RWRMEG
MEMPHIS CWA HOURLY WEATHER ROUNDUP
NATIONAL WEATHER SERVICE MEMPHIS TN
1000 PM CST MON JAN 21 2019

...WEST TENNESSEE...
  
CITY           SKY/WX    TMP DP  RH WIND       PRES   REMARKS
MEMPHIS INTL   CLOUDY    36  23  59 SE12      30.23F WCI  28          
NWS MEMPHIS      N/A     33 N/A N/A MISG        N/A                   
JACKSON        FAIR      32  15  49 VRB5      30.30S WCI  27          
COVINGTON      CLEAR     32  21  64 SE12      30.26F WCI  23          
SOMERVILLE     CLEAR     34  18  51 SE7G13    30.25F WCI  28          
BOLIVAR        CLEAR     32  16  51 SE7       30.28S WCI  26          
LEXINGTON      CLEAR     30  14  51 E3        30.30F                  
SELMER         CLEAR     32  14  47 SE6       30.29S WCI  26          
DYERSBURG      FAIR      32  18  56 SE10      30.28F WCI  24          
UNION CITY     CLEAR     30  16  55 SE8       30.28F WCI  23          


...EASTERN ARKANSAS...
  
CITY           SKY/WX    TMP DP  RH WIND       PRES   REMARKS
JONESBORO      FLURRIES  32  27  81 E7        30.22F WCI  26          
WEST MEMPHIS   FAIR      37  28  70 SE15      30.22F WCI  28          
BATESVILLE     CLOUDY    32  27  81 E9        30.17F WCI  24          
NEWPORT        FAIR      34  28  79 SE13      30.19F WCI  25          
WALNUT RIDGE   FAIR      32  25  75 SE10      30.21F WCI  24          
BLYTHEVILLE    FAIR      34  19  54 SE15      30.25F WCI  24          
SEARCY         FAIR      34  29  82 SE6       30.18F WCI  29          
STUTTGART      FAIR      39  29  67 SE13      30.18F WCI  31          
PINE BLUFF     FAIR      35  29  78 E8        30.17F WCI  29          
MONTICELLO     FAIR      39  28  64 CALM      30.18S                  


...NORTH MISSISSIPPI...
  
CITY           SKY/WX    TMP DP  RH WIND       PRES   REMARKS
TUPELO         FAIR      35  20  54 SE8       30.31S WCI  29          
OXFORD         FAIR      34  23  64 SE7       30.28F WCI  28          
BATESVILLE     FAIR      39  25  56 SE6       30.25S WCI  35          
OLIVE BRANCH   CLEAR     34  21  60 SE10      30.24F WCI  26          
TUNICA           N/A     36  28  75 SE12      30.25F WCI  27          
CLARKSDALE     CLOUDY    37  30  75 SE10      30.24S WCI  30          
CORINTH        FAIR      32  16  51 SE9       30.30F WCI  24          
GREENWOOD      FAIR      41  25  53 SE10G22   30.24F                  
COLUMBUS       FAIR      33  24  71 SE3       30.32F                  
STARKVILLE     FAIR      36  27  69 SE5       30.31F WCI  32          
GOLDEN TRIANGL FAIR      37  26  64 SE10      30.32F WCI  30          


...SOUTHEAST MISSOURI...
  
CITY           SKY/WX    TMP DP  RH WIND       PRES   REMARKS
KENNETT        FAIR      32  25  74 SE9       30.23F WCI  24          
MALDEN         FAIR      32  23  69 SE6       30.26F WCI  26          
WEST PLAINS    CLOUDY    27  22  81 SE13G21   30.10F WCI  16          
POPLAR BLUFF   FAIR      29  20  69 SE10      30.23F WCI  20          
CAPE GIRARDEAU FAIR      26  16  65 SE13      30.26F WCI  15          


...NORTHWEST ALABAMA...
  
CITY           SKY/WX    TMP DP  RH WIND       PRES   REMARKS
MUSCLE SHOALS  FAIR      32  17  54 E9        30.33F WCI  24          


...MIDDLE TENNESSEE...
  
CITY           SKY/WX    TMP DP  RH WIND       PRES   REMARKS
NASHVILLE      MOCLDY    27  12  53 E6        30.36F WCI  20          
CLARKSVILLE    FAIR      24  13  62 E6        30.34F WCI  17          
DICKSON        CLEAR     27  10  50 SE5G12    30.30S WCI  21          
COLUMBIA       CLEAR     28  12  50 CALM      30.31F                  
LAWRENCEBURG   MOCLDY    28  14  54 SE8       30.30F WCI  20          
LEWISBURG      CLEAR     23  18  80 CALM      30.33F                  


...WESTERN KENTUCKY...
  
CITY           SKY/WX    TMP DP  RH WIND       PRES   REMARKS
PADUCAH        FAIR      25  14  63 SE12      30.28F WCI  14          
FORT CAMPBELL  FAIR      24  14  65 E7        30.33F WCI  16          


...CENTRAL ARKANSAS...
  
CITY           SKY/WX    TMP DP  RH WIND       PRES   REMARKS
LITTLE ROCK    CLOUDY    34  28  79 E7        30.16F WCI  28          


SKY/WX REPORTED AS FAIR MEANS FEW OR NO CLOUDS BELOW
12 THOUSAND FEET.